sat.trackr.live / text

‹ back to catalog

STARLINK-1453

NORAD 45670 · 2020-035P

PAYLOAD ACTIVE UNKNOWN

§ Identity

Operator
Country
US
Launch date
2020-06-04
Launch site
AFETR
Launch vehicle
Mass (kg)
RCS (m²)

Purposes: comms

External: N2YO · Heavens-Above · Gunter

§ Orbital elements

Epoch: 2026-09-20T04:25:41.839392Z

Period
89.60 min
Inclination
53.0255°
Eccentricity
0.0002885
Mean motion
16.07197287 rev/d
Perigee alt
252.6 km
Apogee alt
256.5 km
Semi-major
6,632.7 km
B*
6.0953e-4
RAAN
127.0285°
Arg perigee
240.3469°
Mean anomaly
119.7276°
Rev number
34,998

§ Raw data

STARLINK-14531 45670U 20035P   26263.18451203  .00490416  12767-3  60953-3 0  99912 45670  53.0255 127.0285 0002885 240.3469 119.7276 16.07197287349984

JSON: /api/v1/satellites/45670 · /tle

For live sub-satellite position, see the globe view (requires WebGL).

§ Visibility from observer

Set your observer location to see the next 7 days of passes ≥ 10°. The values pass through the URL so the page stays shareable.

No JS? Fill the form by hand. The geolocation button needs JavaScript.